Location: Potomac
(46.8816°N, 113.5795°W)
Time: 00:09:40
(UTC+00:00)

X-37B - Visible Passes

Search period start: 21 January 2022 00:00
Search period end: 31 January 2022 00:00
Orbit: 334 x 337 km, 45.0° (Epoch: 11 January)

Date Brightness Start Highest point End Pass type
(mag) Time Alt. Az. Time Alt. Az. Time Alt. Az.
27 Jan 2.9 02:26:38 10° SSW 02:27:26 14° S 02:27:26 14° S visible
28 Jan 3.0 02:46:20 10° SW 02:47:10 17° SW 02:47:10 17° SW visible
29 Jan 2.3 01:32:04 10° SSW 01:34:08 18° SSE 01:35:38 13° ESE visible
29 Jan 3.7 03:06:29 10° WSW 03:06:51 13° WSW 03:06:51 13° WSW visible
30 Jan 1.4 01:51:46 10° SW 01:54:22 32° SSE 01:55:16 26° ESE visible
